Location: Ch�ze
(42.9000°N, 0.0333°W)
Time: 00:12:58
(UTC+00:00)

PSLV R/B - Pass Details

Date: 24 January 2021
Orbit: 568 x 598 km, 98.2° (Epoch: 24 February)

Event Time Altitude Azimuth Distance (km) Brightness Sun altitude
Exits shadow 18:06:05 - 23° (NNE) 2,493 6.8 -11.7°
Reaches altitude 10° 18:07:29 10° 28° (NNE) 1,945 6.2 -12.0°
Maximum altitude 18:11:28 40° 99° (E) 889 4.4 -12.7°
Drops below altitude 10° 18:15:25 10° 169° (S) 1,926 6.6 -13.4°
Sets 18:17:40 0° 177° (S) 2,820 7.6 -13.8°
